Location: Mound City (historical)
(34.0564°N, 117.2656°W)
Time: 01:37:10
(UTC+00:00)

SJ 16-02 - Pass Details

Date: 08 September 2024
Orbit: 593 x 602 km, 75.0° (Epoch: 03 October)

Event Time Altitude Azimuth Distance (km) Brightness Sun altitude
Rises 12:57:30 0° 186° (S) 2,841 4.6 -7.1°
Reaches altitude 10° 12:59:45 10° 182° (S) 1,941 3.8 -6.6°
Maximum altitude 13:04:00 59° 103° (ESE) 697 2.0 -5.7°
Drops below altitude 10° 13:08:16 10° 24° (NNE) 1,948 4.4 -4.9°
Sets 13:10:32 0° 21° (NNE) 2,853 5.2 -4.4°
